K0VXP-1 Weather Reports


Display with metric or nautical units.
time (UTC)temp
F
wind
direction
speed
MPH
gust
MPH
rain 1hr
in
rain 24hr
in
rain mn
in
humidity
%
barometer
mb
20260509130037 44 57 4.0 8.0 0.00 0.00 0.00 54 1021.5
20260509124529 42 69 4.0 8.0 0.00 0.00 0.00 56 1021.5
20260509123032 41 54 5.0 9.0 0.00 0.00 0.00 56 1021.0
20260509121530 42 69 5.0 8.0 0.00 0.00 0.00 54 1020.9
20260509120035 42 73 5.0 8.0 0.00 0.00 0.00 54 1020.8
20260509114536 42 65 5.0 8.0 0.00 0.00 0.00 55 1020.7
20260509113034 44 93 5.0 8.0 0.00 0.00 0.00 52 1020.4
20260509111530 43 109 6.0 9.0 0.00 0.00 0.00 53 1020.2
20260509110031 44 98 4.0 6.0 0.00 0.00 0.00 51 1020.4
20260509104528 44 78 3.0 7.0 0.00 0.00 0.00 53 1020.6
20260509103032 44 76 4.0 9.0 0.00 0.00 0.00 53 1020.5
20260509101536 44 84 4.0 8.0 0.00 0.00 0.00 53 1020.3
20260509100030 45 85 5.0 8.0 0.00 0.00 0.00 52 1020.3
20260509094532 44 61 4.0 8.0 0.00 0.00 0.00 54 1020.4
20260509093028 45 71 5.0 9.0 0.00 0.00 0.00 52 1020.2
20260509091533 46 64 4.0 8.0 0.00 0.00 0.00 51 1020.3
20260509090032 47 72 5.0 8.0 0.00 0.00 0.00 48 1020.2
20260509084530 48 57 2.0 4.0 0.00 0.00 0.00 46 1020.2
20260509083031 47 319 1.0 6.0 0.00 0.00 0.00 48 1020.2
20260509081533 46 79 5.0 8.0 0.00 0.00 0.00 51 1020.1
20260509080031 47 76 5.0 8.0 0.00 0.00 0.00 49 1019.9
20260509074530 47 61 5.0 9.0 0.00 0.00 0.00 50 1019.8
20260509073035 48 83 5.0 9.0 0.00 0.00 0.00 49 1019.9
20260509071531 48 69 3.0 5.0 0.00 0.00 0.00 47 1020.0
20260509070032 48 88 4.0 6.0 0.00 0.00 0.00 46 1020.0
20260509064535 49 78 3.0 5.0 0.00 0.00 0.00 47 1019.9
20260509063030 50 91 3.0 6.0 0.00 0.00 0.00 46 1020.0
20260509061531 50 79 4.0 7.0 0.00 0.00 0.00 45 1020.0
20260509060030 51 82 3.0 4.0 0.00 0.00 0.00 44 1019.9
20260509054535 50 82 4.0 7.0 0.00 0.00 0.00 44 1020.0
20260509053032 50 78 4.0 8.0 0.00 0.00 0.00 45 1019.8
20260509051536 51 71 5.0 8.0 0.00 0.00 0.00 45 1019.6
20260509050035 51 82 5.0 8.0 0.00 0.00 0.00 46 1019.7
20260509044530 51 69 5.0 8.0 0.00 0.00 0.00 46 1019.7
20260509043030 51 70 6.0 10.0 0.00 0.00 0.00 46 1019.9
20260509041533 51 70 6.0 8.0 0.00 0.00 0.00 45 1019.9
20260509040038 52 78 5.0 8.0 0.00 0.00 0.00 45 1020.0
20260509034545 52 69 5.0 9.0 0.00 0.00 0.00 44 1019.8
20260509033034 53 81 5.0 8.0 0.00 0.00 0.00 44 1019.6
20260509031533 55 68 4.0 7.0 0.00 0.00 0.00 40 1019.4
20260509030031 57 299 1.0 4.0 0.00 0.00 0.00 35 1019.3
20260509024534 57 286 2.0 9.0 0.00 0.00 0.00 36 1019.2
20260509023033 58 297 6.0 12.0 0.00 0.00 0.00 35 1018.9
20260509021530 59 277 3.0 6.0 0.00 0.00 0.00 34 1018.6
20260509020030 60 257 3.0 7.0 0.00 0.00 0.00 33 1018.4
20260509014530 61 256 4.0 9.0 0.00 0.00 0.00 33 1018.4
20260509013031 61 266 8.0 13.0 0.00 0.00 0.00 33 1018.3
20260509011530 63 261 7.0 15.0 0.00 0.00 0.00 32 1018.2
20260509010036 64 271 10.0 18.0 0.00 0.00 0.00 31 1018.1
20260509004535 66 250 6.0 19.0 0.00 0.00 0.00 30 1018.1
20260509003030 67 279 9.0 16.0 0.00 0.00 0.00 29 1017.9
20260509001532 67 275 12.0 19.0 0.00 0.00 0.00 29 1018.1
20260509000028 68 304 8.0 20.0 0.00 0.00 0.00 28 1018.1
20260508234530 68 281 10.0 17.0 0.00 0.00 0.00 28 1018.0
20260508233032 69 290 9.0 16.0 0.00 0.00 0.00 28 1018.0
20260508231534 67 261 9.0 17.0 0.00 0.00 0.00 30 1018.1
20260508230031 67 279 11.0 18.0 0.00 0.00 0.00 29 1018.2
20260508224540 65 288 5.0 11.0 0.00 0.00 0.00 33 1018.4
20260508223043 66 313 9.0 18.0 0.00 0.00 0.00 32 1018.4
20260508221530 67 294 10.0 15.0 0.00 0.00 0.00 32 1018.5
20260508220032 69 240 11.0 21.0 0.00 0.00 0.00 28 1018.6
20260508214549 68 244 12.0 23.0 0.00 0.00 0.00 29 1018.6
20260508213031 68 306 10.0 20.0 0.00 0.00 0.00 30 1018.7
20260508211529 67 284 11.0 21.0 0.00 0.00 0.00 30 1018.8
20260508210036 67 350 10.0 19.0 0.00 0.00 0.00 30 1019.0
20260508204535 66 280 12.0 27.0 0.00 0.00 0.00 29 1019.1
20260508203030 67 259 9.0 18.0 0.00 0.00 0.00 31 1019.1
20260508201531 67 266 11.0 18.0 0.00 0.00 0.00 29 1019.2
20260508200030 66 328 8.0 18.0 0.00 0.00 0.00 33 1019.4
20260508194530 66 306 9.0 19.0 0.00 0.00 0.00 33 1019.3
20260508193035 65 269 5.0 16.0 0.00 0.00 0.00 31 1019.5
20260508191545 65 283 11.0 18.0 0.00 0.00 0.00 32 1019.6
20260508190048 64 299 9.0 16.0 0.00 0.00 0.00 33 1019.8
20260508184535 64 280 11.0 20.0 0.00 0.00 0.00 34 1019.9
20260508183037 64 307 8.0 18.0 0.00 0.00 0.00 36 1020.1
20260508181531 62 271 6.0 16.0 0.00 0.00 0.00 35 1020.3
20260508180034 62 240 9.0 18.0 0.00 0.00 0.00 38 1020.4
20260508174537 61 216 7.0 14.0 0.00 0.00 0.00 39 1020.6
20260508173032 61 242 3.0 14.0 0.00 0.00 0.00 39 1020.8
20260508171533 60 296 3.0 10.0 0.00 0.00 0.00 41 1020.9
20260508170037 59 300 4.0 9.0 0.00 0.00 0.00 39 1021.3
20260508164542 59 260 4.0 11.0 0.00 0.00 0.00 42 1021.4
20260508163032 58 187 2.0 8.0 0.00 0.00 0.00 41 1021.4
20260508161531 57 0 4.0 9.0 0.00 0.00 0.00 40 1021.4
20260508160033 56 230 4.0 7.0 0.00 0.00 0.00 44 1021.4
20260508154535 56 222 3.0 7.0 0.00 0.00 0.00 46 1021.4
20260508153043 54 215 2.0 5.0 0.00 0.00 0.00 53 1021.5
20260508151530 51 182 1.0 5.0 0.00 0.00 0.00 56 1021.7
20260508150033 49 234 1.0 4.0 0.00 0.00 0.00 59 1021.9
20260508144534 49 236 2.0 7.0 0.00 0.00 0.00 60 1021.8
20260508143029 48 0 2.0 6.0 0.00 0.00 0.00 60 1021.8
20260508141529 48 247 3.0 5.0 0.00 0.00 0.00 57 1021.9
20260508140032 49 256 2.0 3.0 0.00 0.00 0.00 56 1021.9
20260508134534 48 25 2.0 4.0 0.00 0.00 0.00 56 1021.8
20260508133032 46 65 4.0 7.0 0.00 0.00 0.00 59 1021.7
20260508131529 44 57 3.0 5.0 0.00 0.00 0.00 63 1021.5